Location: La Fredeussais
(48.1780°N, 1.3980°W)
Time: 15:25:40
(UTC+00:00)

COSMOS 2406 - Pass Details

Date: 09 May 2021
Orbit: 844 x 862 km, 71.0° (Epoch: 24 June)

Event Time Altitude Azimuth Distance (km) Brightness Sun altitude
Rises 20:20:09 0° 336° (NNW) 3,415 7.6 -7.8°
Reaches altitude 10° 20:22:53 10° 346° (NNW) 2,476 6.5 -8.1°
Maximum altitude 20:27:56 32° 49° (NE) 1,428 4.3 -8.8°
Enters shadow 20:32:56 10° 111° (ESE) 2,459 5.0 -9.4°
